Dewpoint
57 56 56 55 55 55 54 54 53 53 53 54 54 55 55 55 55 55 55 55 55 55 55 55 57 57 51 45 34 51 62 67 61 40 32 32 43 45 45 48 50 51 51 50 51 56 58
57 57 56 55 55 55 54 54 53 53 52 54 54 55 55 55 55 55 55 55 54 54 54 55 58 57 46 32 41 60 55 60 54 41 35 39 42 47 48 45 47 48 48 47 53 59 58
59 58 56 56 55 55 54 54 53 52 53 54 54 54 54 54 54 54 54 54 54 54 54 55 58 53 48 31 46 57 54 55 49 41 37 33 41 46 50 49 47 46 45 42 59 59 59
59 58 57 56 55 55 54 54 53 53 53 54 54 54 54 54 54 54 54 54 53 54 54 56 59 52 45 47 49 53 55 51 48 43 35 35 38 41 47 48 41 34 32 28 56 59 60
60 58 57 55 55 54 54 54 53 53 54 54 54 54 53 53 54 54 53 53 53 54 55 58 51 49 43 50 43 40 53 43 46 44 41 32 36 38 39 40 34 33 32 32 40 60 59
59 58 56 55 54 54 54 53 53 54 54 54 54 54 54 54 53 53 52 52 52 55 56 54 52 44 38 31 23 21 41 43 46 40 37 34 31 30 36 36 34 32 32 30 27 55 58
58 57 55 55 54 54 53 53 53 53 54 54 54 54 54 53 53 52 50 41 30 32 46 34 31 35 33 32 18 20 21 38 36 38 35 32 30 31 34 37 36 32 30 29 30 30 27
56 55 54 54 54 53 53 53 53 53 54 54 54 54 53 53 53 52 48 29 30 28 24 31 37 38 36 34 22 16 23 25 34 32 34 36 33 37 39 36 33 32 30 30 30 29 29
53 54 54 54 53 53 54 54 54 54 54 54 54 54 53 52 52 47 37 31 33 34 25 23 26 26 24 30 18 12 22 26 34 34 35 34 36 38 38 38 35 32 30 30 29 28 55
55 55 54 54 53 54 54 54 54 54 54 54 54 54 53 51 39 39 32 32 36 28 19 18 21 19 15 11 9 14 27 23 24 32 34 35 36 36 34 35 35 32 32 31 28 24 19
54 54 54 54 54 54 54 54 54 54 54 54 53 53 52 50 43 36 30 38 36 23 14 19 13 13 10 7 11 13 16 14 18 18 29 31 28 35 32 30 32 31 32 28 26 21 20
54 53 53 53 53 53 54 54 54 54 54 53 53 52 50 46 43 42 42 33 24 17 15 13 12 9 8 9 11 14 15 14 15 13 16 14 17 21 27 29 30 31 29 21 21 19 16
54 53 53 53 52 53 53 54 54 54 53 52 52 50 49 46 29 37 35 26 19 15 19 16 11 10 8 9 11 13 13 12 10 8 7 13 13 17 21 21 22 23 20 18 17 16 15
54 53 54 54 52 52 53 54 54 53 53 52 50 49 49 46 42 40 28 23 19 20 20 21 14 9 13 11 12 12 12 16 18 13 7 6 6 12 17 19 20 19 19 17 14 16 17
54 54 53 52 51 51 53 54 53 53 52 51 49 45 43 41 44 33 27 22 22 23 24 22 21 21 22 22 17 14 20 22 21 20 10 14 14 17 17 16 18 22 20 19 18 23 16
54 53 53 52 52 53 54 54 53 53 52 51 46 44 39 42 37 30 32 30 25 27 25 24 21 24 23 23 22 21 22 24 24 23 20 19 14 16 16 16 16 18 23 22 19 15 14
53 53 54 53 54 54 54 54 54 53 52 50 45 35 35 36 34 31 28 27 26 28 27 25 25 25 25 25 25 23 26 26 28 25 24 26 16 14 14 15 14 17 18 18 21 20 18
53 54 53 53 54 54 55 54 53 52 51 47 44 30 37 35 29 30 26 27 31 28 28 28 28 27 26 26 26 26 28 29 31 27 26 25 19 16 16 20 20 20 19 17 17 18 20
54 54 52 53 54 55 55 54 53 52 51 44 42 42 38 33 27 28 28 27 29 29 28 27 26 27 27 25 25 27 29 28 33 32 34 27 20 14 11 14 21 20 21 22 17 12 12
53 53 52 53 54 55 55 54 53 52 51 46 37 30 33 32 32 28 28 29 28 31 31 31 30 28 26 25 27 26 26 28 30 33 42 28 21 19 16 19 21 20 21 21 19 17 16
52 53 52 53 55 55 55 54 53 52 51 43 36 32 35 30 30 30 30 30 30 30 31 32 32 30 27 28 28 28 28 28 28 33 32 25 24 27 23 22 23 22 24 23 20 21 19
52 53 52 53 54 55 55 54 54 52 50 43 37 35 34 32 30 30 32 30 31 31 30 31 32 31 31 30 30 28 29 29 27 28 26 30 27 28 25 28 26 23 24 23 23 21 21
52 53 52 52 54 55 55 55 54 52 49 43 44 42 33 34 32 31 31 32 32 32 33 34 34 32 32 33 34 33 32 30 30 28 26 28 28 26 22 28 24 20 24 25 25 25 23
52 52 52 53 53 54 55 55 54 53 50 46 45 43 35 32 32 32 34 35 34 33 32 33 35 34 35 35 35 34 32 31 31 32 27 28 28 27 24 25 16 22 33 31 26 35 37
52 52 51 53 53 53 55 55 55 53 52 48 47 44 39 33 34 34 34 34 33 34 34 35 35 36 36 35 30 29 28 26 30 32 32 30 29 26 23 20 24 27 33 31 32 33 37
52 52 51 52 53 53 54 55 55 54 52 49 48 47 44 36 32 37 35 35 33 32 34 36 37 36 36 34 30 25 22 28 27 28 30 32 32 28 28 22 21 30 32 33 35 30 35
51 51 51 52 53 53 53 54 55 55 53 48 48 48 46 41 40 35 34 35 36 35 34 35 37 36 35 29 24 21 26 33 20 25 25 25 26 23 29 30 31 33 34 35 28 29 36
51 51 51 51 52 53 53 53 54 54 54 48 48 49 44 41 43 39 38 38 39 36 34 35 34 34 33 27 24 30 29 31 28 31 25 27 25 18 28 25 20 35 34 28 33 37 36
51 51 51 50 51 52 53 53 54 55 54 50 46 48 49 45 41 45 44 43 40 39 37 37 32 34 35 31 30 32 31 33 29 17 36 29 27 24 27 26 33 36 35 38 39 36 35
Lifted_Index
11 11 11 11 11 11 11 11 12 13 15 16 16 15 15 15 15 15 15 15 15 15 15 13 12 12 12 11 9 8 7 6 7 10 11 10 7 5 3 1 -0 -0 0 1 1 0 -1
11 11 11 11 11 11 11 11 12 14 16 16 16 15 15 15 15 15 15 15 15 15 14 13 12 12 11 10 8 7 7 7 8 11 11 10 7 5 3 2 1 1 1 2 1 -0 -1
11 11 11 11 11 11 11 12 14 15 16 16 16 15 15 15 15 15 15 15 15 15 14 12 11 11 10 9 8 7 7 8 9 10 11 10 7 5 3 2 2 2 2 2 -0 -1 -2
11 11 11 11 11 11 12 13 15 16 16 16 15 15 15 15 15 15 15 15 15 14 13 11 10 10 9 8 7 7 7 7 8 9 11 10 7 4 3 3 2 2 2 1 -1 -2 -2
11 10 10 11 11 12 13 15 16 16 16 15 15 15 15 15 15 15 15 15 13 12 11 10 9 9 8 8 8 8 7 7 7 8 10 10 6 4 3 3 3 3 2 1 -0 -2 -3
10 10 11 12 13 14 15 15 16 15 15 15 14 14 14 14 15 15 15 14 12 10 9 9 9 9 8 8 9 9 9 8 7 7 8 8 5 3 2 2 3 3 2 2 1 0 -0
11 11 12 13 14 15 15 15 15 15 14 14 14 14 14 14 14 14 14 12 11 9 9 9 9 9 9 9 9 10 9 8 7 6 7 6 4 3 2 2 3 3 3 3 3 3 3
13 13 13 14 14 14 15 14 14 14 14 13 13 13 13 13 13 13 11 11 10 9 8 8 9 9 8 9 9 9 8 8 7 6 6 5 4 3 2 3 3 4 4 4 4 4 3
14 13 13 14 14 14 14 14 13 13 13 12 12 12 12 11 11 9 9 9 9 8 7 7 7 8 8 8 8 8 7 7 6 6 6 5 4 3 3 3 4 4 4 4 4 3 2
13 13 13 13 13 13 13 13 12 12 11 11 11 11 11 10 8 7 7 7 7 7 6 6 6 7 8 8 8 8 7 6 6 6 5 5 4 4 4 4 4 4 4 3 3 3 3
13 13 13 13 13 12 12 11 11 10 10 10 9 9 9 8 7 6 6 6 6 5 4 4 6 6 7 7 8 8 7 6 6 6 5 5 5 5 5 5 4 4 4 4 3 3 3
12 12 12 12 12 11 11 10 10 9 9 8 8 8 8 7 6 6 6 5 4 3 3 4 5 5 6 6 7 7 7 7 6 6 6 6 6 6 6 6 5 5 4 4 3 3 3
12 12 12 11 11 10 9 9 9 8 8 7 7 8 7 7 6 6 5 4 3 2 2 3 4 4 5 6 6 6 6 7 7 6 6 5 5 6 6 6 6 5 4 3 2 2 2
11 11 11 10 10 9 8 8 8 7 7 6 6 6 6 6 6 5 4 3 2 2 2 3 3 4 4 4 5 5 6 6 7 7 6 5 5 6 7 6 6 5 4 3 2 1 2
11 11 10 9 9 8 8 8 7 6 5 5 5 5 5 5 5 4 3 2 1 2 2 2 2 3 3 4 4 4 5 6 7 7 6 5 5 6 7 7 6 5 4 4 3 2 2
11 10 9 9 8 8 8 7 6 5 4 3 3 3 4 4 4 3 2 1 1 1 1 2 2 2 2 3 3 4 5 6 6 7 7 6 6 6 6 6 6 5 4 4 4 3 2
11 10 9 8 8 8 8 7 6 4 3 2 2 3 3 3 3 2 1 1 1 1 1 1 1 2 2 2 3 4 5 5 6 6 6 6 5 5 5 5 5 5 4 4 4 3 2
10 10 9 8 8 8 8 7 5 4 2 2 2 2 3 3 2 2 1 1 2 2 2 1 1 2 2 2 2 3 4 5 5 5 5 5 4 3 4 5 5 5 4 4 4 4 3
10 9 8 8 8 8 7 6 5 4 3 2 1 2 3 3 2 2 2 3 3 4 3 2 2 3 3 3 3 3 4 5 5 4 4 4 4 3 3 4 5 5 5 4 4 3 3
10 9 8 8 8 7 7 6 5 4 3 2 2 2 3 3 3 3 3 4 5 5 5 4 4 4 4 4 4 4 4 5 5 5 4 4 4 3 3 4 4 4 5 5 4 3 2
10 9 8 8 8 7 7 6 5 4 3 3 3 3 3 4 4 4 4 5 6 6 6 6 6 6 6 6 5 5 5 5 5 5 5 5 4 4 4 5 4 4 4 4 4 4 3
10 9 8 8 8 7 6 6 5 4 3 3 3 4 4 4 4 4 5 5 6 6 6 6 6 7 7 6 6 6 6 6 6 6 6 6 5 5 4 5 4 4 4 5 5 5 4
10 9 8 8 8 7 6 6 5 4 3 3 3 3 4 4 4 5 5 5 5 6 6 6 6 6 6 6 6 6 6 6 6 6 7 7 6 5 4 4 4 4 5 5 5 5 5
10 9 8 7 8 7 7 6 5 4 3 3 3 3 3 4 4 4 4 4 4 5 5 5 5 6 6 6 6 6 6 6 6 6 6 6 6 5 4 4 4 4 5 6 6 5 5
10 9 8 7 7 8 7 6 5 4 3 3 2 2 3 3 3 3 4 4 4 4 4 4 4 5 5 5 5 5 5 6 6 6 5 5 6 5 5 4 4 5 5 6 5 5 5
10 9 8 7 7 7 7 6 5 5 4 3 2 2 2 3 3 3 3 4 4 4 4 4 4 4 5 5 5 4 5 5 5 5 5 5 5 5 5 4 4 4 5 5 5 5 5
10 9 9 8 7 7 7 7 6 6 5 4 3 2 2 3 3 3 3 4 4 4 4 4 4 4 5 5 5 4 5 5 5 5 5 5 5 5 5 4 4 4 4 4 4 4 4
10 9 9 8 7 7 7 7 7 7 6 5 4 3 3 3 3 3 3 3 3 3 3 4 4 5 5 5 5 5 5 5 5 5 5 6 6 5 5 5 5 5 5 4 4 4 4
10 9 9 9 8 7 6 6 7 7 7 6 4 4 4 4 4 3 3 3 3 3 3 4 5 5 5 5 6 5 5 5 5 5 5 6 6 6 6 5 5 6 6 5 5 5 4